#datetime,building,power
2023-12-30T00:00:00,prt,20.29
2023-12-30T00:01:00,prt,21.12
2023-12-30T00:02:00,prt,20.24
2023-12-30T00:03:00,prt,19.87
2023-12-30T00:04:00,prt,18.78
2023-12-30T00:05:00,prt,19.64
2023-12-30T00:06:00,prt,19.63
2023-12-30T00:07:00,prt,19.40
2023-12-30T00:08:00,prt,19.20
2023-12-30T00:09:00,prt,20.09
2023-12-30T00:10:00,prt,19.02
2023-12-30T00:11:00,prt,18.99
2023-12-30T00:12:00,prt,22.76
2023-12-30T00:13:00,prt,22.79
2023-12-30T00:14:00,prt,23.39
2023-12-30T00:15:00,prt,19.85
2023-12-30T00:16:00,prt,19.80
2023-12-30T00:17:00,prt,20.16
2023-12-30T00:18:00,prt,21.58
2023-12-30T00:19:00,prt,22.32
2023-12-30T00:20:00,prt,22.03
2023-12-30T00:21:00,prt,22.73
2023-12-30T00:22:00,prt,21.36
2023-12-30T00:23:00,prt,20.26
2023-12-30T00:24:00,prt,20.47
2023-12-30T00:25:00,prt,20.62
2023-12-30T00:26:00,prt,21.20
2023-12-30T00:27:00,prt,21.72
2023-12-30T00:28:00,prt,20.70
2023-12-30T00:29:00,prt,20.81
2023-12-30T00:30:00,prt,20.89
2023-12-30T00:31:00,prt,21.05
2023-12-30T00:32:00,prt,21.15
2023-12-30T00:33:00,prt,21.85
2023-12-30T00:34:00,prt,21.48
2023-12-30T00:35:00,prt,20.86
2023-12-30T00:36:00,prt,20.18
2023-12-30T00:37:00,prt,19.35
2023-12-30T00:38:00,prt,19.28
2023-12-30T00:39:00,prt,20.18
2023-12-30T00:40:00,prt,20.16
2023-12-30T00:41:00,prt,21.41
2023-12-30T00:42:00,prt,21.82
2023-12-30T00:43:00,prt,24.80
2023-12-30T00:44:00,prt,23.48
2023-12-30T00:45:00,prt,24.29
2023-12-30T00:46:00,prt,23.56
2023-12-30T00:47:00,prt,17.20
2023-12-30T00:48:00,prt,17.13
2023-12-30T00:49:00,prt,17.74
2023-12-30T00:50:00,prt,16.97
2023-12-30T00:51:00,prt,16.65
2023-12-30T00:52:00,prt,17.22
2023-12-30T00:53:00,prt,17.19
2023-12-30T00:54:00,prt,17.57
2023-12-30T00:55:00,prt,17.62
2023-12-30T00:56:00,prt,17.54
2023-12-30T00:57:00,prt,17.05
2023-12-30T00:58:00,prt,17.43
2023-12-30T00:59:00,prt,17.17
2023-12-30T01:00:00,prt,17.43
2023-12-30T01:01:00,prt,17.17
2023-12-30T01:02:00,prt,17.15
2023-12-30T01:03:00,prt,17.23
2023-12-30T01:04:00,prt,17.04
2023-12-30T01:05:00,prt,16.33
2023-12-30T01:06:00,prt,19.39
2023-12-30T01:07:00,prt,19.05
2023-12-30T01:08:00,prt,19.56
2023-12-30T01:09:00,prt,22.16
2023-12-30T01:10:00,prt,22.48
2023-12-30T01:11:00,prt,22.47
2023-12-30T01:12:00,prt,22.68
2023-12-30T01:13:00,prt,19.88
2023-12-30T01:14:00,prt,20.43
2023-12-30T01:15:00,prt,23.54
2023-12-30T01:16:00,prt,22.32
2023-12-30T01:17:00,prt,22.29
2023-12-30T01:18:00,prt,18.80
2023-12-30T01:19:00,prt,16.18
2023-12-30T01:20:00,prt,16.18
2023-12-30T01:21:00,prt,16.22
2023-12-30T01:22:00,prt,17.97
2023-12-30T01:23:00,prt,17.49
2023-12-30T01:24:00,prt,17.78
2023-12-30T01:25:00,prt,18.61
2023-12-30T01:26:00,prt,17.30
2023-12-30T01:27:00,prt,16.55
2023-12-30T01:28:00,prt,16.52
2023-12-30T01:29:00,prt,17.23
2023-12-30T01:30:00,prt,16.55
2023-12-30T01:31:00,prt,16.08
2023-12-30T01:32:00,prt,16.79
2023-12-30T01:33:00,prt,16.78
2023-12-30T01:34:00,prt,16.86
2023-12-30T01:35:00,prt,16.64
2023-12-30T01:36:00,prt,20.41
2023-12-30T01:37:00,prt,19.31
2023-12-30T01:38:00,prt,20.49
2023-12-30T01:39:00,prt,20.70
2023-12-30T01:40:00,prt,19.44
2023-12-30T01:41:00,prt,23.49
2023-12-30T01:42:00,prt,23.46
2023-12-30T01:43:00,prt,17.36
2023-12-30T01:44:00,prt,17.23
2023-12-30T01:45:00,prt,18.32
2023-12-30T01:46:00,prt,22.13
2023-12-30T01:47:00,prt,21.05
2023-12-30T01:48:00,prt,20.36
2023-12-30T01:49:00,prt,21.23
2023-12-30T01:50:00,prt,18.63
2023-12-30T01:51:00,prt,18.62
2023-12-30T01:52:00,prt,19.65
2023-12-30T01:53:00,prt,20.08
2023-12-30T01:54:00,prt,20.10
2023-12-30T01:55:00,prt,19.75
2023-12-30T01:56:00,prt,19.52
2023-12-30T01:57:00,prt,19.28
2023-12-30T01:58:00,prt,18.74
2023-12-30T01:59:00,prt,18.09
2023-12-30T02:00:00,prt,18.10
2023-12-30T02:01:00,prt,20.12
2023-12-30T02:02:00,prt,19.67
2023-12-30T02:03:00,prt,20.49
2023-12-30T02:04:00,prt,19.34
2023-12-30T02:05:00,prt,20.70
2023-12-30T02:06:00,prt,20.69
2023-12-30T02:07:00,prt,19.99
2023-12-30T02:08:00,prt,22.48
2023-12-30T02:09:00,prt,21.08
2023-12-30T02:10:00,prt,18.51
2023-12-30T02:11:00,prt,18.34
2023-12-30T02:12:00,prt,18.48
2023-12-30T02:13:00,prt,18.49
2023-12-30T02:14:00,prt,18.42
2023-12-30T02:15:00,prt,15.94
2023-12-30T02:16:00,prt,16.71
2023-12-30T02:17:00,prt,17.36
2023-12-30T02:18:00,prt,21.15
2023-12-30T02:19:00,prt,21.48
2023-12-30T02:20:00,prt,20.99
2023-12-30T02:21:00,prt,16.79
2023-12-30T02:22:00,prt,17.20
2023-12-30T02:23:00,prt,16.19
2023-12-30T02:24:00,prt,16.77
2023-12-30T02:25:00,prt,16.50
2023-12-30T02:26:00,prt,16.75
2023-12-30T02:27:00,prt,17.23
2023-12-30T02:28:00,prt,17.25
2023-12-30T02:29:00,prt,17.40
2023-12-30T02:30:00,prt,18.14
2023-12-30T02:31:00,prt,17.56
2023-12-30T02:32:00,prt,18.22
2023-12-30T02:33:00,prt,18.27
2023-12-30T02:34:00,prt,17.23
2023-12-30T02:35:00,prt,17.01
2023-12-30T02:36:00,prt,16.29
2023-12-30T02:37:00,prt,16.35
2023-12-30T02:38:00,prt,16.70
2023-12-30T02:39:00,prt,17.98
2023-12-30T02:40:00,prt,21.05
2023-12-30T02:41:00,prt,20.98
2023-12-30T02:42:00,prt,19.56
2023-12-30T02:43:00,prt,19.96
2023-12-30T02:44:00,prt,19.14
2023-12-30T02:45:00,prt,20.46
2023-12-30T02:46:00,prt,17.95
2023-12-30T02:47:00,prt,17.89
2023-12-30T02:48:00,prt,17.87
2023-12-30T02:49:00,prt,21.32
2023-12-30T02:50:00,prt,20.26
2023-12-30T02:51:00,prt,20.57
2023-12-30T02:52:00,prt,21.34
2023-12-30T02:53:00,prt,18.62
2023-12-30T02:54:00,prt,18.60
2023-12-30T02:55:00,prt,18.60
2023-12-30T02:56:00,prt,18.63
2023-12-30T02:57:00,prt,18.57
2023-12-30T02:58:00,prt,19.92
2023-12-30T02:59:00,prt,20.91
2023-12-30T03:00:00,prt,22.09
2023-12-30T03:01:00,prt,22.49
2023-12-30T03:02:00,prt,19.66
2023-12-30T03:03:00,prt,17.71
2023-12-30T03:04:00,prt,18.10
2023-12-30T03:05:00,prt,18.02
2023-12-30T03:06:00,prt,18.05
2023-12-30T03:07:00,prt,18.21
2023-12-30T03:08:00,prt,16.74
2023-12-30T03:09:00,prt,16.72
2023-12-30T03:10:00,prt,16.59
2023-12-30T03:11:00,prt,20.32
2023-12-30T03:12:00,prt,21.26
2023-12-30T03:13:00,prt,21.16
2023-12-30T03:14:00,prt,20.58
2023-12-30T03:15:00,prt,20.89
2023-12-30T03:16:00,prt,19.19
2023-12-30T03:17:00,prt,17.47
2023-12-30T03:18:00,prt,17.53
2023-12-30T03:19:00,prt,17.15
2023-12-30T03:20:00,prt,16.61
2023-12-30T03:21:00,prt,19.37
2023-12-30T03:22:00,prt,19.73
2023-12-30T03:23:00,prt,20.33
2023-12-30T03:24:00,prt,19.10
2023-12-30T03:25:00,prt,16.64
2023-12-30T03:26:00,prt,17.27
2023-12-30T03:27:00,prt,16.96
2023-12-30T03:28:00,prt,17.69
2023-12-30T03:29:00,prt,16.97
2023-12-30T03:30:00,prt,16.56
2023-12-30T03:31:00,prt,16.90
2023-12-30T03:32:00,prt,15.94
2023-12-30T03:33:00,prt,16.33
2023-12-30T03:34:00,prt,17.60
2023-12-30T03:35:00,prt,17.82
2023-12-30T03:36:00,prt,17.90
2023-12-30T03:37:00,prt,18.11
2023-12-30T03:38:00,prt,19.06
2023-12-30T03:39:00,prt,20.03
2023-12-30T03:40:00,prt,17.87
2023-12-30T03:41:00,prt,20.80
2023-12-30T03:42:00,prt,23.07
2023-12-30T03:43:00,prt,22.56
2023-12-30T03:44:00,prt,23.85
2023-12-30T03:45:00,prt,22.98
2023-12-30T03:46:00,prt,22.38
2023-12-30T03:47:00,prt,23.07
2023-12-30T03:48:00,prt,19.76
2023-12-30T03:49:00,prt,21.70
2023-12-30T03:50:00,prt,21.50
2023-12-30T03:51:00,prt,21.80
2023-12-30T03:52:00,prt,20.91
2023-12-30T03:53:00,prt,24.89
2023-12-30T03:54:00,prt,22.25
2023-12-30T03:55:00,prt,21.98
2023-12-30T03:56:00,prt,17.52
2023-12-30T03:57:00,prt,18.39
2023-12-30T03:58:00,prt,16.05
2023-12-30T03:59:00,prt,15.92
2023-12-30T04:00:00,prt,15.93
2023-12-30T04:01:00,prt,15.81
2023-12-30T04:02:00,prt,16.02
2023-12-30T04:03:00,prt,16.73
2023-12-30T04:04:00,prt,16.50
2023-12-30T04:05:00,prt,17.07
2023-12-30T04:06:00,prt,16.67
2023-12-30T04:07:00,prt,18.01
2023-12-30T04:08:00,prt,17.46
2023-12-30T04:09:00,prt,15.92
2023-12-30T04:10:00,prt,16.29
2023-12-30T04:11:00,prt,17.97
2023-12-30T04:12:00,prt,21.16
2023-12-30T04:13:00,prt,21.03
2023-12-30T04:14:00,prt,20.95
2023-12-30T04:15:00,prt,20.35
2023-12-30T04:16:00,prt,20.30
2023-12-30T04:17:00,prt,20.26
2023-12-30T04:18:00,prt,19.38
2023-12-30T04:19:00,prt,16.85
2023-12-30T04:20:00,prt,16.39
2023-12-30T04:21:00,prt,17.04
2023-12-30T04:22:00,prt,15.70
2023-12-30T04:23:00,prt,15.86
2023-12-30T04:24:00,prt,15.59
2023-12-30T04:25:00,prt,18.55
2023-12-30T04:26:00,prt,19.32
2023-12-30T04:27:00,prt,20.07
2023-12-30T04:28:00,prt,16.21
2023-12-30T04:29:00,prt,15.83
2023-12-30T04:30:00,prt,15.77
2023-12-30T04:31:00,prt,16.74
2023-12-30T04:32:00,prt,17.94
2023-12-30T04:33:00,prt,18.49
2023-12-30T04:34:00,prt,18.76
2023-12-30T04:35:00,prt,18.52
2023-12-30T04:36:00,prt,19.28
2023-12-30T04:37:00,prt,19.11
2023-12-30T04:38:00,prt,19.07
2023-12-30T04:39:00,prt,19.06
2023-12-30T04:40:00,prt,18.54
2023-12-30T04:41:00,prt,18.52
2023-12-30T04:42:00,prt,18.71
2023-12-30T04:43:00,prt,22.05
2023-12-30T04:44:00,prt,21.58
2023-12-30T04:45:00,prt,20.12
2023-12-30T04:46:00,prt,21.15
2023-12-30T04:47:00,prt,20.86
2023-12-30T04:48:00,prt,21.36
2023-12-30T04:49:00,prt,21.16
2023-12-30T04:50:00,prt,18.80
2023-12-30T04:51:00,prt,18.61
2023-12-30T04:52:00,prt,18.21
2023-12-30T04:53:00,prt,19.01
2023-12-30T04:54:00,prt,18.05
2023-12-30T04:55:00,prt,18.77
2023-12-30T04:56:00,prt,22.45
2023-12-30T04:57:00,prt,21.98
2023-12-30T04:58:00,prt,20.85
2023-12-30T04:59:00,prt,20.31
2023-12-30T05:00:00,prt,17.64
2023-12-30T05:01:00,prt,17.88
2023-12-30T05:02:00,prt,16.98
2023-12-30T05:03:00,prt,16.11
2023-12-30T05:04:00,prt,15.96
2023-12-30T05:05:00,prt,15.94
2023-12-30T05:06:00,prt,16.37
2023-12-30T05:07:00,prt,16.67
2023-12-30T05:08:00,prt,16.62
2023-12-30T05:09:00,prt,16.58
2023-12-30T05:10:00,prt,17.08
2023-12-30T05:11:00,prt,17.83
2023-12-30T05:12:00,prt,17.70
2023-12-30T05:13:00,prt,17.15
2023-12-30T05:14:00,prt,20.25
2023-12-30T05:15:00,prt,21.34
2023-12-30T05:16:00,prt,20.20
2023-12-30T05:17:00,prt,20.09
2023-12-30T05:18:00,prt,20.25
2023-12-30T05:19:00,prt,20.47
2023-12-30T05:20:00,prt,17.63
2023-12-30T05:21:00,prt,18.51
2023-12-30T05:22:00,prt,19.52
2023-12-30T05:23:00,prt,19.54
2023-12-30T05:24:00,prt,18.15
2023-12-30T05:25:00,prt,18.57
2023-12-30T05:26:00,prt,18.13
2023-12-30T05:27:00,prt,20.12
2023-12-30T05:28:00,prt,23.28
2023-12-30T05:29:00,prt,22.09
2023-12-30T05:30:00,prt,21.60
2023-12-30T05:31:00,prt,17.87
2023-12-30T05:32:00,prt,17.95
2023-12-30T05:33:00,prt,18.09
2023-12-30T05:34:00,prt,18.12
2023-12-30T05:35:00,prt,18.17
2023-12-30T05:36:00,prt,16.89
2023-12-30T05:37:00,prt,16.90
2023-12-30T05:38:00,prt,18.56
2023-12-30T05:39:00,prt,17.95
2023-12-30T05:40:00,prt,17.21
2023-12-30T05:41:00,prt,17.74
2023-12-30T05:42:00,prt,18.12
2023-12-30T05:43:00,prt,18.01
2023-12-30T05:44:00,prt,20.14
2023-12-30T05:45:00,prt,19.66
2023-12-30T05:46:00,prt,19.94
2023-12-30T05:47:00,prt,19.90
2023-12-30T05:48:00,prt,19.74
2023-12-30T05:49:00,prt,19.99
2023-12-30T05:50:00,prt,19.96
2023-12-30T05:51:00,prt,17.11
2023-12-30T05:52:00,prt,19.86
2023-12-30T05:53:00,prt,24.04
2023-12-30T05:54:00,prt,23.55
2023-12-30T05:55:00,prt,23.58
2023-12-30T05:56:00,prt,18.44
2023-12-30T05:57:00,prt,17.98
2023-12-30T05:58:00,prt,19.68
2023-12-30T05:59:00,prt,19.90
2023-12-30T06:00:00,prt,23.39
2023-12-30T06:01:00,prt,23.47
2023-12-30T06:02:00,prt,23.79
2023-12-30T06:03:00,prt,20.02
2023-12-30T06:04:00,prt,20.25
2023-12-30T06:05:00,prt,21.18
2023-12-30T06:06:00,prt,20.19
2023-12-30T06:07:00,prt,19.64
2023-12-30T06:08:00,prt,19.62
2023-12-30T06:09:00,prt,18.97
2023-12-30T06:10:00,prt,18.49
2023-12-30T06:11:00,prt,18.35
2023-12-30T06:12:00,prt,18.46
2023-12-30T06:13:00,prt,18.41
2023-12-30T06:14:00,prt,18.49
2023-12-30T06:15:00,prt,19.06
2023-12-30T06:16:00,prt,19.56
2023-12-30T06:17:00,prt,19.51
2023-12-30T06:18:00,prt,18.94
2023-12-30T06:19:00,prt,20.43
2023-12-30T06:20:00,prt,19.49
2023-12-30T06:21:00,prt,19.60
2023-12-30T06:22:00,prt,19.82
2023-12-30T06:23:00,prt,18.39
2023-12-30T06:24:00,prt,19.47
2023-12-30T06:25:00,prt,19.30
2023-12-30T06:26:00,prt,20.42
2023-12-30T06:27:00,prt,20.40
2023-12-30T06:28:00,prt,21.30
2023-12-30T06:29:00,prt,21.46
2023-12-30T06:30:00,prt,21.22
2023-12-30T06:31:00,prt,21.29
2023-12-30T06:32:00,prt,24.67
2023-12-30T06:33:00,prt,25.48
2023-12-30T06:34:00,prt,25.81
2023-12-30T06:35:00,prt,22.35
2023-12-30T06:36:00,prt,23.06
2023-12-30T06:37:00,prt,23.55
2023-12-30T06:38:00,prt,23.26
2023-12-30T06:39:00,prt,22.70
2023-12-30T06:40:00,prt,23.20
2023-12-30T06:41:00,prt,23.16
2023-12-30T06:42:00,prt,22.73
2023-12-30T06:43:00,prt,23.66
2023-12-30T06:44:00,prt,23.25
2023-12-30T06:45:00,prt,23.42
2023-12-30T06:46:00,prt,19.49
2023-12-30T06:47:00,prt,20.04
2023-12-30T06:48:00,prt,19.82
2023-12-30T06:49:00,prt,18.28
2023-12-30T06:50:00,prt,16.72
2023-12-30T06:51:00,prt,17.38
2023-12-30T06:52:00,prt,16.98
2023-12-30T06:53:00,prt,17.58
2023-12-30T06:54:00,prt,17.59
2023-12-30T06:55:00,prt,18.00
2023-12-30T06:56:00,prt,16.78
2023-12-30T06:57:00,prt,16.73
2023-12-30T06:58:00,prt,18.27
2023-12-30T06:59:00,prt,19.32
2023-12-30T07:00:00,prt,19.06
2023-12-30T07:01:00,prt,18.16
2023-12-30T07:02:00,prt,18.64
2023-12-30T07:03:00,prt,21.35
2023-12-30T07:04:00,prt,21.82
2023-12-30T07:05:00,prt,21.75
2023-12-30T07:06:00,prt,23.84
2023-12-30T07:07:00,prt,20.68
2023-12-30T07:08:00,prt,19.71
2023-12-30T07:09:00,prt,20.22
2023-12-30T07:10:00,prt,20.83
2023-12-30T07:11:00,prt,20.54
2023-12-30T07:12:00,prt,20.64
2023-12-30T07:13:00,prt,18.17
2023-12-30T07:14:00,prt,18.55
2023-12-30T07:15:00,prt,18.33
2023-12-30T07:16:00,prt,16.33
2023-12-30T07:17:00,prt,17.45
2023-12-30T07:18:00,prt,17.13
2023-12-30T07:19:00,prt,17.14
2023-12-30T07:20:00,prt,16.71
2023-12-30T07:21:00,prt,16.76
2023-12-30T07:22:00,prt,16.61
2023-12-30T07:23:00,prt,17.39
2023-12-30T07:24:00,prt,18.05
2023-12-30T07:25:00,prt,18.69
2023-12-30T07:26:00,prt,18.85
2023-12-30T07:27:00,prt,18.07
2023-12-30T07:28:00,prt,19.50
2023-12-30T07:29:00,prt,18.48
2023-12-30T07:30:00,prt,18.83
2023-12-30T07:31:00,prt,19.71
2023-12-30T07:32:00,prt,18.96
2023-12-30T07:33:00,prt,19.10
2023-12-30T07:34:00,prt,18.53
2023-12-30T07:35:00,prt,21.59
2023-12-30T07:36:00,prt,24.44
2023-12-30T07:37:00,prt,24.86
2023-12-30T07:38:00,prt,23.18
2023-12-30T07:39:00,prt,19.90
2023-12-30T07:40:00,prt,19.32
2023-12-30T07:41:00,prt,20.65
2023-12-30T07:42:00,prt,21.59
2023-12-30T07:43:00,prt,17.77
2023-12-30T07:44:00,prt,17.20
2023-12-30T07:45:00,prt,18.16
2023-12-30T07:46:00,prt,18.08
2023-12-30T07:47:00,prt,18.33
2023-12-30T07:48:00,prt,18.40
2023-12-30T07:49:00,prt,18.34
2023-12-30T07:50:00,prt,17.81
2023-12-30T07:51:00,prt,17.66
2023-12-30T07:52:00,prt,18.97
2023-12-30T07:53:00,prt,18.90
2023-12-30T07:54:00,prt,18.95
2023-12-30T07:55:00,prt,18.74
2023-12-30T07:56:00,prt,18.04
2023-12-30T07:57:00,prt,17.51
2023-12-30T07:58:00,prt,17.44
2023-12-30T07:59:00,prt,17.45
2023-12-30T08:00:00,prt,18.03
2023-12-30T08:01:00,prt,17.82
2023-12-30T08:02:00,prt,17.71
2023-12-30T08:03:00,prt,18.67
2023-12-30T08:04:00,prt,18.02
2023-12-30T08:05:00,prt,18.70
2023-12-30T08:06:00,prt,19.69
2023-12-30T08:07:00,prt,25.57
2023-12-30T08:08:00,prt,24.51
2023-12-30T08:09:00,prt,23.37
2023-12-30T08:10:00,prt,21.61
2023-12-30T08:11:00,prt,17.69
2023-12-30T08:12:00,prt,18.44
2023-12-30T08:13:00,prt,17.70
2023-12-30T08:14:00,prt,15.85
2023-12-30T08:15:00,prt,15.92
2023-12-30T08:16:00,prt,15.88
2023-12-30T08:17:00,prt,15.65
2023-12-30T08:18:00,prt,15.46
2023-12-30T08:19:00,prt,17.92
2023-12-30T08:20:00,prt,18.77
2023-12-30T08:21:00,prt,18.62
2023-12-30T08:22:00,prt,17.86
2023-12-30T08:23:00,prt,17.36
2023-12-30T08:24:00,prt,16.79
2023-12-30T08:25:00,prt,17.41
2023-12-30T08:26:00,prt,19.44
2023-12-30T08:27:00,prt,19.68
2023-12-30T08:28:00,prt,17.91
2023-12-30T08:29:00,prt,17.32
2023-12-30T08:30:00,prt,18.91
2023-12-30T08:31:00,prt,18.82
2023-12-30T08:32:00,prt,18.15
2023-12-30T08:33:00,prt,18.24
2023-12-30T08:34:00,prt,17.84
2023-12-30T08:35:00,prt,17.72
2023-12-30T08:36:00,prt,18.62
2023-12-30T08:37:00,prt,18.12
2023-12-30T08:38:00,prt,19.08
2023-12-30T08:39:00,prt,21.86
2023-12-30T08:40:00,prt,21.86
2023-12-30T08:41:00,prt,22.26
2023-12-30T08:42:00,prt,21.38
2023-12-30T08:43:00,prt,18.50
2023-12-30T08:44:00,prt,18.86
2023-12-30T08:45:00,prt,16.02
2023-12-30T08:46:00,prt,18.10
2023-12-30T08:47:00,prt,18.93
2023-12-30T08:48:00,prt,18.62
2023-12-30T08:49:00,prt,20.09
2023-12-30T08:50:00,prt,18.32
2023-12-30T08:51:00,prt,18.17
2023-12-30T08:52:00,prt,17.91
2023-12-30T08:53:00,prt,21.46
2023-12-30T08:54:00,prt,20.96
2023-12-30T08:55:00,prt,16.74
2023-12-30T08:56:00,prt,15.94
2023-12-30T08:57:00,prt,15.68
2023-12-30T08:58:00,prt,16.29
2023-12-30T08:59:00,prt,16.81
2023-12-30T09:00:00,prt,16.80
2023-12-30T09:01:00,prt,16.71
2023-12-30T09:02:00,prt,16.38
2023-12-30T09:03:00,prt,16.35
2023-12-30T09:04:00,prt,15.59
2023-12-30T09:05:00,prt,16.63
2023-12-30T09:06:00,prt,16.11
2023-12-30T09:07:00,prt,16.10
2023-12-30T09:08:00,prt,20.10
2023-12-30T09:09:00,prt,22.44
2023-12-30T09:10:00,prt,23.76
2023-12-30T09:11:00,prt,26.94
2023-12-30T09:12:00,prt,26.35
2023-12-30T09:13:00,prt,26.66
2023-12-30T09:14:00,prt,25.03
2023-12-30T09:15:00,prt,19.49
2023-12-30T09:16:00,prt,19.48
2023-12-30T09:17:00,prt,19.02
2023-12-30T09:18:00,prt,18.75
2023-12-30T09:19:00,prt,16.65
2023-12-30T09:20:00,prt,16.67
2023-12-30T09:21:00,prt,17.12
2023-12-30T09:22:00,prt,16.05
2023-12-30T09:23:00,prt,15.33
2023-12-30T09:24:00,prt,15.47
2023-12-30T09:25:00,prt,18.60
2023-12-30T09:26:00,prt,16.61
2023-12-30T09:27:00,prt,16.13
2023-12-30T09:28:00,prt,16.19
2023-12-30T09:29:00,prt,16.50
2023-12-30T09:30:00,prt,16.70
2023-12-30T09:31:00,prt,17.70
2023-12-30T09:32:00,prt,17.61
2023-12-30T09:33:00,prt,17.98
2023-12-30T09:34:00,prt,16.93
2023-12-30T09:35:00,prt,15.87
2023-12-30T09:36:00,prt,15.44
2023-12-30T09:37:00,prt,15.12
2023-12-30T09:38:00,prt,15.58
2023-12-30T09:39:00,prt,21.79
2023-12-30T09:40:00,prt,20.43
2023-12-30T09:41:00,prt,20.33
2023-12-30T09:42:00,prt,21.82
2023-12-30T09:43:00,prt,24.79
2023-12-30T09:44:00,prt,24.79
2023-12-30T09:45:00,prt,23.11
2023-12-30T09:46:00,prt,20.17
2023-12-30T09:47:00,prt,16.24
2023-12-30T09:48:00,prt,15.50
2023-12-30T09:49:00,prt,16.12
2023-12-30T09:50:00,prt,16.66
2023-12-30T09:51:00,prt,17.05
2023-12-30T09:52:00,prt,17.00
2023-12-30T09:53:00,prt,18.30
2023-12-30T09:54:00,prt,18.65
2023-12-30T09:55:00,prt,18.09
2023-12-30T09:56:00,prt,16.98
2023-12-30T09:57:00,prt,15.72
2023-12-30T09:58:00,prt,16.66
2023-12-30T09:59:00,prt,15.77
2023-12-30T10:00:00,prt,15.46
2023-12-30T10:01:00,prt,17.72
2023-12-30T10:02:00,prt,17.61
2023-12-30T10:03:00,prt,17.23
2023-12-30T10:04:00,prt,17.54
2023-12-30T10:05:00,prt,17.57
2023-12-30T10:06:00,prt,18.03
2023-12-30T10:07:00,prt,19.21
2023-12-30T10:08:00,prt,18.87
2023-12-30T10:09:00,prt,22.50
2023-12-30T10:10:00,prt,19.52
2023-12-30T10:11:00,prt,18.51
2023-12-30T10:12:00,prt,19.52
2023-12-30T10:13:00,prt,19.63
2023-12-30T10:14:00,prt,19.96
2023-12-30T10:15:00,prt,24.60
2023-12-30T10:16:00,prt,21.20
2023-12-30T10:17:00,prt,20.58
2023-12-30T10:18:00,prt,20.52
2023-12-30T10:19:00,prt,16.55
2023-12-30T10:20:00,prt,17.32
2023-12-30T10:21:00,prt,17.24
2023-12-30T10:22:00,prt,17.39
2023-12-30T10:23:00,prt,15.37
2023-12-30T10:24:00,prt,15.14
2023-12-30T10:25:00,prt,15.33
2023-12-30T10:26:00,prt,15.46
2023-12-30T10:27:00,prt,16.14
2023-12-30T10:28:00,prt,15.61
2023-12-30T10:29:00,prt,15.62
2023-12-30T10:30:00,prt,15.71
2023-12-30T10:31:00,prt,16.18
2023-12-30T10:32:00,prt,16.59
2023-12-30T10:33:00,prt,16.23
2023-12-30T10:34:00,prt,16.21
2023-12-30T10:35:00,prt,16.68
2023-12-30T10:36:00,prt,17.23
2023-12-30T10:37:00,prt,16.76
2023-12-30T10:38:00,prt,16.14
2023-12-30T10:39:00,prt,15.78
2023-12-30T10:40:00,prt,19.24
2023-12-30T10:41:00,prt,18.94
2023-12-30T10:42:00,prt,18.89
2023-12-30T10:43:00,prt,19.05
2023-12-30T10:44:00,prt,20.36
2023-12-30T10:45:00,prt,19.97
2023-12-30T10:46:00,prt,19.79
2023-12-30T10:47:00,prt,20.77
2023-12-30T10:48:00,prt,21.47
2023-12-30T10:49:00,prt,21.94
2023-12-30T10:50:00,prt,20.67
2023-12-30T10:51:00,prt,19.87
2023-12-30T10:52:00,prt,20.22
2023-12-30T10:53:00,prt,19.07
2023-12-30T10:54:00,prt,19.14
2023-12-30T10:55:00,prt,19.60
2023-12-30T10:56:00,prt,23.09
2023-12-30T10:57:00,prt,20.47
2023-12-30T10:58:00,prt,19.25
2023-12-30T10:59:00,prt,18.27
2023-12-30T11:00:00,prt,19.08
2023-12-30T11:01:00,prt,17.18
2023-12-30T11:02:00,prt,17.08
2023-12-30T11:03:00,prt,16.80
2023-12-30T11:04:00,prt,16.44
2023-12-30T11:05:00,prt,16.12
2023-12-30T11:06:00,prt,16.11
2023-12-30T11:07:00,prt,15.72
2023-12-30T11:08:00,prt,16.57
2023-12-30T11:09:00,prt,17.13
2023-12-30T11:10:00,prt,16.81
2023-12-30T11:11:00,prt,20.21
2023-12-30T11:12:00,prt,19.01
2023-12-30T11:13:00,prt,21.30
2023-12-30T11:14:00,prt,21.09
2023-12-30T11:15:00,prt,20.56
2023-12-30T11:16:00,prt,20.57
2023-12-30T11:17:00,prt,18.97
2023-12-30T11:18:00,prt,17.06
2023-12-30T11:19:00,prt,18.77
2023-12-30T11:20:00,prt,19.72
2023-12-30T11:21:00,prt,19.61
2023-12-30T11:22:00,prt,19.34
2023-12-30T11:23:00,prt,15.56
2023-12-30T11:24:00,prt,15.33
2023-12-30T11:25:00,prt,15.25
2023-12-30T11:26:00,prt,16.00
2023-12-30T11:27:00,prt,17.66
2023-12-30T11:28:00,prt,23.16
2023-12-30T11:29:00,prt,23.05
2023-12-30T11:30:00,prt,19.33
2023-12-30T11:31:00,prt,18.80
2023-12-30T11:32:00,prt,18.51
2023-12-30T11:33:00,prt,17.46
2023-12-30T11:34:00,prt,17.29
2023-12-30T11:35:00,prt,15.72
2023-12-30T11:36:00,prt,15.73
2023-12-30T11:37:00,prt,16.17
2023-12-30T11:38:00,prt,16.41
2023-12-30T11:39:00,prt,15.66
2023-12-30T11:40:00,prt,14.73
2023-12-30T11:41:00,prt,15.38
2023-12-30T11:42:00,prt,22.01
2023-12-30T11:43:00,prt,23.87
2023-12-30T11:44:00,prt,23.17
2023-12-30T11:45:00,prt,20.50
2023-12-30T11:46:00,prt,20.91
2023-12-30T11:47:00,prt,20.87
2023-12-30T11:48:00,prt,17.60
2023-12-30T11:49:00,prt,18.89
2023-12-30T11:50:00,prt,19.17
2023-12-30T11:51:00,prt,20.08
2023-12-30T11:52:00,prt,25.44
2023-12-30T11:53:00,prt,24.86
2023-12-30T11:54:00,prt,25.49
2023-12-30T11:55:00,prt,22.23
2023-12-30T11:56:00,prt,21.46
2023-12-30T11:57:00,prt,19.63
2023-12-30T11:58:00,prt,19.53
2023-12-30T11:59:00,prt,18.82
2023-12-30T12:00:00,prt,18.52
2023-12-30T12:01:00,prt,18.55
2023-12-30T12:02:00,prt,18.53
2023-12-30T12:03:00,prt,18.60
2023-12-30T12:04:00,prt,20.29
2023-12-30T12:05:00,prt,20.56
2023-12-30T12:06:00,prt,21.00
2023-12-30T12:07:00,prt,20.54
2023-12-30T12:08:00,prt,19.72
2023-12-30T12:09:00,prt,19.44
2023-12-30T12:10:00,prt,20.22
2023-12-30T12:11:00,prt,18.69
2023-12-30T12:12:00,prt,18.67
2023-12-30T12:13:00,prt,18.44
2023-12-30T12:14:00,prt,19.06
2023-12-30T12:15:00,prt,18.81
2023-12-30T12:16:00,prt,18.35
2023-12-30T12:17:00,prt,18.63
2023-12-30T12:18:00,prt,17.83
2023-12-30T12:19:00,prt,17.05
2023-12-30T12:20:00,prt,18.40
2023-12-30T12:21:00,prt,18.38
2023-12-30T12:22:00,prt,17.68
2023-12-30T12:23:00,prt,17.91
2023-12-30T12:24:00,prt,21.80
2023-12-30T12:25:00,prt,21.59
2023-12-30T12:26:00,prt,23.94
2023-12-30T12:27:00,prt,21.37
2023-12-30T12:28:00,prt,20.07
2023-12-30T12:29:00,prt,18.96
2023-12-30T12:30:00,prt,19.96
2023-12-30T12:31:00,prt,20.31
2023-12-30T12:32:00,prt,20.22
2023-12-30T12:33:00,prt,20.92
2023-12-30T12:34:00,prt,22.11
2023-12-30T12:35:00,prt,22.38
2023-12-30T12:36:00,prt,21.69
2023-12-30T12:37:00,prt,23.16
2023-12-30T12:38:00,prt,22.28
2023-12-30T12:39:00,prt,22.00
2023-12-30T12:40:00,prt,22.29
2023-12-30T12:41:00,prt,21.77
2023-12-30T12:42:00,prt,21.46
2023-12-30T12:43:00,prt,21.01
2023-12-30T12:44:00,prt,18.94
2023-12-30T12:45:00,prt,18.90
2023-12-30T12:46:00,prt,16.90
2023-12-30T12:47:00,prt,17.22
2023-12-30T12:48:00,prt,16.59
2023-12-30T12:49:00,prt,17.40
2023-12-30T12:50:00,prt,17.11
2023-12-30T12:51:00,prt,17.09
2023-12-30T12:52:00,prt,17.52
2023-12-30T12:53:00,prt,18.04
2023-12-30T12:54:00,prt,18.14
2023-12-30T12:55:00,prt,19.02
2023-12-30T12:56:00,prt,19.71
2023-12-30T12:57:00,prt,19.24
2023-12-30T12:58:00,prt,19.19
2023-12-30T12:59:00,prt,19.11
2023-12-30T13:00:00,prt,17.27
2023-12-30T13:01:00,prt,17.66
2023-12-30T13:02:00,prt,17.56
2023-12-30T13:03:00,prt,16.93
2023-12-30T13:04:00,prt,15.81
2023-12-30T13:05:00,prt,16.01
2023-12-30T13:06:00,prt,18.67
2023-12-30T13:07:00,prt,18.65
2023-12-30T13:08:00,prt,19.41
2023-12-30T13:09:00,prt,19.28
2023-12-30T13:10:00,prt,19.30
2023-12-30T13:11:00,prt,20.07
2023-12-30T13:12:00,prt,20.13
2023-12-30T13:13:00,prt,17.58
2023-12-30T13:14:00,prt,18.43
2023-12-30T13:15:00,prt,18.31
2023-12-30T13:16:00,prt,18.64
2023-12-30T13:17:00,prt,18.70
2023-12-30T13:18:00,prt,18.00